Regional Weather Roundup
Issued by NWS

Home | Current Version | Previous Version | Text Only | Print | Product List | Glossary On
Versions: 1 2 3 4 5 6 7 8 9 10 11 12 13 14 15 16 17 18 19 20 21 22 23 24 25 26 27 28 29 30 31 32 33 34 35 36 37 38 39 40 41 42 43 44 45 46 47 48 49 50
000
ASUS44 KFWD 300810
RWRTX
NORTH TEXAS HOURLY WEATHER ROUNDUP
NATIONAL WEATHER SERVICE FORT WORTH TX
300 AM CDT SAT JUL 30 2016

NOTE: "FAIR" INDICATES FEW OR NO CLOUDS BELOW 12,000 FEET WITH NO
SIGNIFICANT WEATHER AND/OR OBSTRUCTIONS TO VISIBILITY.

TXZ118-119-300900-
DALLAS/FORT WORTH METROPLEX

CITY           SKY/WX    TMP DP  RH WIND       PRES   REMARKS
DFW AIRPORT    PTCLDY    83  72  69 S12       29.96F
DALLAS LOVE    PTCLDY    83  73  72 S15       29.97S
FTW MEACHAM    CLEAR     82  70  66 S9        29.97S
DAL-EXECUTIVE  CLEAR     80  72  76 S7        29.97F
FTW-ALLIANCE   CLEAR     80  71  74 S9        29.96F
FTW-NAS-JRB    PTCLDY    80  68  66 S7        29.98S
FTW-SPINKS     CLEAR     79  71  75 S7        29.99F
ARLINGTON      CLEAR     82  72  71 S9        29.98S
GRAND PRAIRIE  CLEAR     82  71  71 S7        29.99S
ADDISON        PTCLDY    83  74  74 S8        29.99S HX  90
MESQUITE       PTCLDY    78  74  87 S7        29.98F
LANCASTER      CLEAR     79  73  82 S3        29.99S
$$

TXZ091>094-102>105-117-120-121-131>134-300900-
NORTH CENTRAL TEXAS

CITY           SKY/WX    TMP DP  RH WIND       PRES   REMARKS
SHRMAN/DENISON CLEAR     80  73  79 SE10      29.99S
GAINESVILLE    CLEAR     76  73  89 SE3       30.00R
BOWIE          CLEAR     76  72  88 CALM      29.99S
BRIDGEPORT     CLEAR     77  71  83 S5        29.99S
DECATUR        CLEAR     79  67  68 SE7       29.99S
DENTON         CLEAR     78  73  84 SE6       29.97S
MCKINNEY       MOCLDY    80  74  81 SE10      29.98S
GREENVILLE     CLOUDY    77  64  65 SE6       30.00S
ROCKWALL       CLOUDY    80  73  79 SE5       29.98S
TERRELL        PTCLDY    80  72  76 E6        30.00R
WAXAHACHIE     CLEAR     77  73  90 SE5       30.00S
CLEBURNE       CLEAR     77  73  88 SE8       30.00F
GRANBURY       CLEAR     82  68  62 S7        29.99F
$$

TXZ083>090-098>101-113>116-127>130-139>142-154-155-300900-
WESTERN NORTH TEXAS

CITY           SKY/WX    TMP DP  RH WIND       PRES   REMARKS
WICHITA FALLS  CLOUDY    77  70  79 E6        29.96F
WF-KICKAPOO    MOCLDY    79  70  73 E5        29.97F
VERNON         PTCLDY    79  65  62 E5        29.97F
ABILENE        CLEAR     79  62  56 S12       30.02S
ABILENE-DYESS  CLEAR     78  64  62 S12       30.00S
CISCO          CLEAR     77  64  65 S10       30.03S
BRECKENRIDGE   CLEAR     80  64  59 S8        29.98F
GRAHAM         CLEAR     77  69  78 CALM      29.97S
MINERAL WELLS  CLEAR     76  70  82 SE7       29.97S
STEPHENVILLE   CLEAR     75  66  74 CALM      30.03F
COMANCHE       CLOUDY    78  67  69 S8        30.02F
BROWNWOOD      CLOUDY    77  64  65 SE6       30.02S
COLEMAN        PTCLDY    76  62  62 S6        30.03S
$$

TXZ143>147-156>162-174-175-300900-
CENTRAL TEXAS

CITY           SKY/WX    TMP DP  RH WIND       PRES   REMARKS
WACO           CLOUDY    83  71  67 S16       29.99F
WACO-MCGREGOR  CLOUDY    82  72  71 S12       30.00F
HILLSBORO      CLOUDY    80  72  76 S9        30.00S
CORSICANA      CLOUDY    81  73  76 S10       30.00F
MEXIA          LGT RAIN  80  73  80 S8        30.00F
HEARNE         CLEAR     78  74  87 CALM      30.02F
CAMERON        CLEAR     80  74  81 SW7       30.01F
TEMPLE         CLOUDY    80  72  76 S13       30.02S
KILLEEN        CLOUDY    80  71  75 S9        30.01F
KILLEEN-SKYLRK CLOUDY    80  72  76 S10       30.02F
FORT HOOD      CLOUDY    80  71  74 S10       29.99F
GATESVILLE     CLOUDY    82  72  69 S9        30.03S
HAMILTON       CLOUDY    81  68  64 S10       30.03S
LAMPASAS       CLOUDY    81  73  76 S5        30.02F
$$

TXZ095>097-106>112-122>126-135>138-148>153-164>167-300900-
EAST TEXAS

CITY           SKY/WX    TMP DP  RH WIND       PRES   REMARKS
PARIS          CLEAR     72  63  73 CALM      29.99F
SULPHUR SPRNGS CLEAR     76  65  67 S7        30.01S
MOUNT PLEASANT CLOUDY    74  66  76 N5        30.00R
GILMER         CLEAR     76  70  83 S5        29.99F
MINEOLA        MOCLDY    77  70  78 SE3       30.01F
TYLER          PTCLDY    79  70  74 CALM      30.01R
LONGVIEW       CLEAR     74  73  97 S3        30.00F
MARSHALL       CLEAR     71  69  92 CALM      30.00F
ATHENS         CLOUDY    77  73  88 S5        29.99S
PALESTINE      CLOUDY    80  74  83 S8        30.02F
JACKSONVILLE   MOCLDY    77  73  86 S8        30.03F
HENDERSON      CLOUDY    75  73  93 N3        30.02S
CENTER         CLOUDY    78  76  95 CALM      30.01F
NACOGDOCHES    CLOUDY   N/A N/A N/A S5        29.99F
LUFKIN         CLOUDY    78  75  90 S6        30.01S
$$

SUPPLEMENTAL OBSERVATIONS (CENTRAL)

CITY           SKY/WX    TMP DP  RH WIND       PRES   REMARKS
CADDO GRASSLND   N/A     75  66  73 S5          N/A
PAT MAYSE LAKE   N/A     72  70  94 SE2         N/A
GREENVILLE       N/A     75  64  69 S3          N/A
CEDAR HILL       N/A     81  73  78 S8G17       N/A
MCGREGOR         N/A     81  72  74 S9G17       N/A
TEMPLE           N/A     79  72  78 S10         N/A
$$

SUPPLEMENTAL OBSERVATIONS (WEST)

CITY           SKY/WX    TMP DP  RH WIND       PRES   REMARKS
MILLERS CREEK    N/A     81  64  57 S12         N/A
POSSUM KINGDOM   N/A     79  63  57 S7          N/A
LBJ GRASSLAND    N/A     79  68  69 SE6         N/A
GRANBURY         N/A     81  66  61 S7          N/A
HAMBY            N/A     75  63  64 S8          N/A
IVIE RESERVOIR   N/A     75  61  60 E6          N/A
COLORADO BEND    N/A     79  68  69 SW5         N/A
$$

SUPPLEMENTAL OBSERVATIONS (EAST)

CITY           SKY/WX    TMP DP  RH WIND       PRES   REMARKS
CLARKSVILLE      N/A     72  70  94 SE1         N/A
TEXARKANA        N/A     72  70  94 S1          N/A
LINDEN           N/A     73  68  83 CALM        N/A
GILMER           N/A     75  70  83 SW5         N/A
HENDERSON        N/A     75  70  83 NE2         N/A
LUFKIN           N/A     77  75  94 MISG        N/A
N SABINE NF      N/A     75  72  88 MISG        N/A
S SABINE NF      N/A     75  73  94 S1          N/A
$$

SUPPLEMENTAL OBSERVATIONS ARE A COLLECTION OF AUTOMATED INSTRUMENTS
THAT ARE MAINTAINED BY A VARIETY OF FEDERAL AND STATE AGENCIES.
CERTAIN ELEMENTS...SUCH AS HUMIDITY VALUES AND SUSTAINED WIND
SPEEDS...MAY BE APPROXIMATED.




USA.gov is the U.S. government's official web portal to all federal, state and local government web resources and services.